Time,TemperatureF,DewpointF,PressureIn,WindDirection,WindDirectionDegrees,WindSpeedMPH,WindSpeedGustMPH,Humidity,HourlyPrecipIn,Conditions,Clouds,dailyrainin,SoftwareType,DateUTC
2013-03-10 00:00:00,41.1,39.8,30.32,South,180,0.0,4.0,95,0.00,,,0.00,Wunderground v.1.15,2013-03-10 08:00:00,
2013-03-10 00:05:00,41.2,39.9,30.32,South,180,0.0,4.0,95,0.00,,,0.00,Wunderground v.1.15,2013-03-10 08:05:00,
2013-03-10 00:15:00,41.8,40.7,30.32,South,186,1.0,4.0,96,0.00,,,0.00,Wunderground v.1.15,2013-03-10 08:15:00,
2013-03-10 00:20:00,44.0,42.9,30.32,South,191,2.0,2.0,96,0.00,,,0.00,Wunderground v.1.15,2013-03-10 08:20:00,
2013-03-10 00:30:00,38.7,36.9,30.32,South,190,0.0,0.0,93,0.00,,,0.00,Wunderground v.1.15,2013-03-10 08:30:00,
2013-03-10 00:35:00,39.0,37.7,30.32,South,190,0.0,0.0,95,0.00,,,0.00,Wunderground v.1.15,2013-03-10 08:35:00,
2013-03-10 00:40:00,39.0,37.7,30.32,South,190,0.0,0.0,95,0.00,,,0.00,Wunderground v.1.15,2013-03-10 08:40:00,
2013-03-10 00:45:00,38.8,37.5,30.32,South,190,0.0,0.0,95,0.00,,,0.00,Wunderground v.1.15,2013-03-10 08:45:00,
2013-03-10 00:55:00,40.1,39.1,30.33,South,190,1.0,7.0,96,0.00,,,0.00,Wunderground v.1.15,2013-03-10 08:55:00,
2013-03-10 01:00:00,39.2,37.9,30.33,SSW,204,3.0,5.0,95,0.00,,,0.00,Wunderground v.1.15,2013-03-10 09:00:00,
2013-03-10 01:05:00,38.9,37.9,30.33,SW,215,4.0,5.0,96,0.00,,,0.00,Wunderground v.1.15,2013-03-10 09:05:00,
2013-03-10 01:10:00,38.6,37.6,30.33,SW,215,1.0,1.0,96,0.00,,,0.00,Wunderground v.1.15,2013-03-10 09:10:00,
2013-03-10 01:15:00,38.6,37.6,30.33,SW,215,0.0,1.0,96,0.00,,,0.00,Wunderground v.1.15,2013-03-10 09:15:00,
2013-03-10 01:25:00,38.6,37.6,30.33,SW,215,0.0,0.0,96,0.00,,,0.00,Wunderground v.1.15,2013-03-10 09:25:00,
2013-03-10 01:30:00,39.6,38.8,30.33,SW,215,0.0,0.0,97,0.00,,,0.00,Wunderground v.1.15,2013-03-10 09:30:00,
2013-03-10 01:35:00,39.6,38.8,30.33,SW,215,0.0,0.0,97,0.00,,,0.00,Wunderground v.1.15,2013-03-10 09:35:00,
2013-03-10 01:40:00,39.1,38.1,30.33,SW,215,0.0,0.0,96,0.00,,,0.00,Wunderground v.1.15,2013-03-10 09:40:00,
2013-03-10 01:45:00,37.7,36.4,30.32,SW,215,0.0,0.0,95,0.00,,,0.00,Wunderground v.1.15,2013-03-10 09:45:00,
2013-03-10 01:55:00,37.7,36.7,30.33,SW,215,0.0,0.0,96,0.00,,,0.00,Wunderground v.1.15,2013-03-10 09:55:00,
2013-03-10 03:00:00,38.7,37.9,30.32,SW,215,0.0,0.0,97,0.00,,,0.00,Wunderground v.1.15,2013-03-10 10:00:00,
2013-03-10 03:05:00,39.0,38.2,30.33,SW,215,0.0,0.0,97,0.00,,,0.00,Wunderground v.1.15,2013-03-10 10:05:00,
2013-03-10 03:15:00,37.3,36.3,30.33,SW,215,0.0,0.0,96,0.00,,,0.00,Wunderground v.1.15,2013-03-10 10:15:00,
2013-03-10 03:20:00,36.9,35.9,30.33,SW,215,0.0,0.0,96,0.00,,,0.00,Wunderground v.1.15,2013-03-10 10:20:00,
2013-03-10 03:25:00,37.3,36.3,30.33,SW,215,0.0,0.0,96,0.00,,,0.00,Wunderground v.1.15,2013-03-10 10:25:00,
2013-03-10 03:30:00,37.6,36.6,30.33,SW,215,0.0,0.0,96,0.00,,,0.00,Wunderground v.1.15,2013-03-10 10:30:00,
2013-03-10 03:35:00,38.6,37.8,30.33,SW,215,0.0,0.0,97,0.00,,,0.00,Wunderground v.1.15,2013-03-10 10:35:00,
2013-03-10 03:45:00,36.1,35.1,30.32,SW,220,0.0,3.0,96,0.00,,,0.00,Wunderground v.1.15,2013-03-10 10:45:00,
2013-03-10 03:50:00,36.1,35.1,30.32,SW,220,0.0,0.0,96,0.00,,,0.00,Wunderground v.1.15,2013-03-10 10:50:00,
2013-03-10 03:55:00,37.0,36.2,30.32,SW,220,0.0,0.0,97,0.00,,,0.00,Wunderground v.1.15,2013-03-10 10:55:00,
2013-03-10 04:00:00,37.0,36.2,30.31,SW,220,0.0,0.0,97,0.00,,,0.00,Wunderground v.1.15,2013-03-10 11:00:00,
2013-03-10 04:10:00,35.5,34.5,30.31,SW,220,0.0,0.0,96,0.00,,,0.00,Wunderground v.1.15,2013-03-10 11:10:00,
2013-03-10 04:15:00,35.9,35.1,30.31,SW,220,0.0,0.0,97,0.00,,,0.00,Wunderground v.1.15,2013-03-10 11:15:00,
2013-03-10 04:25:00,36.6,35.8,30.30,SW,220,0.0,0.0,97,0.00,,,0.00,Wunderground v.1.15,2013-03-10 11:25:00,
2013-03-10 04:30:00,36.8,36.0,30.30,SW,220,0.0,0.0,97,0.00,,,0.00,Wunderground v.1.15,2013-03-10 11:30:00,
2013-03-10 04:35:00,36.1,35.3,30.30,SW,220,0.0,0.0,97,0.00,,,0.00,Wunderground v.1.15,2013-03-10 11:35:00,
2013-03-10 04:40:00,38.2,37.4,30.31,SW,219,1.0,7.0,97,0.00,,,0.00,Wunderground v.1.15,2013-03-10 11:40:00,
2013-03-10 04:50:00,35.6,34.8,30.32,SW,221,8.0,11.0,97,0.00,,,0.00,Wunderground v.1.15,2013-03-10 11:50:00,
2013-03-10 04:55:00,35.5,34.7,30.31,SW,222,9.0,11.0,97,0.00,,,0.00,Wunderground v.1.15,2013-03-10 11:55:00,
2013-03-10 05:05:00,36.7,35.9,30.31,SW,224,5.0,7.0,97,0.00,,,0.00,Wunderground v.1.15,2013-03-10 12:05:00,
2013-03-10 05:10:00,36.4,35.6,30.31,SW,224,3.0,3.0,97,0.00,,,0.00,Wunderground v.1.15,2013-03-10 12:10:00,
2013-03-10 05:15:00,36.8,36.0,30.32,SW,225,3.0,3.0,97,0.00,,,0.00,Wunderground v.1.15,2013-03-10 12:15:00,
2013-03-10 05:20:00,36.6,35.8,30.32,SW,225,3.0,3.0,97,0.00,,,0.00,Wunderground v.1.15,2013-03-10 12:20:00,
2013-03-10 05:25:00,36.5,35.7,30.32,SW,225,1.0,3.0,97,0.00,,,0.00,Wunderground v.1.15,2013-03-10 12:25:00,
2013-03-10 05:35:00,34.8,34.0,30.32,SW,225,0.0,0.0,97,0.00,,,0.00,Wunderground v.1.15,2013-03-10 12:35:00,
2013-03-10 05:40:00,34.8,34.0,30.32,SW,225,0.0,0.0,97,0.00,,,0.00,Wunderground v.1.15,2013-03-10 12:40:00,
2013-03-10 05:45:00,35.1,34.3,30.32,SW,225,0.0,1.0,97,0.00,,,0.00,Wunderground v.1.15,2013-03-10 12:45:00,
2013-03-10 05:50:00,35.1,34.3,30.32,SW,225,0.0,0.0,97,0.00,,,0.00,Wunderground v.1.15,2013-03-10 12:50:00,
2013-03-10 05:55:00,35.2,34.4,30.33,SW,225,0.0,0.0,97,0.00,,,0.00,Wunderground v.1.15,2013-03-10 12:55:00,
2013-03-10 06:05:00,35.1,34.3,30.32,SW,225,0.0,0.0,97,0.00,,,0.00,Wunderground v.1.15,2013-03-10 13:05:00,
2013-03-10 06:10:00,34.6,33.8,30.32,SW,225,0.0,0.0,97,0.00,,,0.00,Wunderground v.1.15,2013-03-10 13:10:00,
2013-03-10 06:15:00,34.3,33.5,30.32,SW,225,0.0,0.0,97,0.00,,,0.00,Wunderground v.1.15,2013-03-10 13:15:00,
2013-03-10 06:20:00,34.4,33.6,30.32,SW,225,0.0,0.0,97,0.00,,,0.00,Wunderground v.1.15,2013-03-10 13:20:00,
2013-03-10 06:30:00,34.5,33.7,30.32,SW,225,0.0,0.0,97,0.00,,,0.00,Wunderground v.1.15,2013-03-10 13:30:00,
2013-03-10 06:35:00,34.0,33.2,30.32,SW,225,0.0,0.0,97,0.00,,,0.00,Wunderground v.1.15,2013-03-10 13:35:00,
2013-03-10 06:40:00,33.9,33.1,30.32,SW,225,0.0,0.0,97,0.00,,,0.00,Wunderground v.1.15,2013-03-10 13:40:00,
2013-03-10 06:45:00,33.8,33.0,30.32,SW,225,0.0,0.0,97,0.00,,,0.00,Wunderground v.1.15,2013-03-10 13:45:00,
2013-03-10 06:55:00,34.5,33.7,30.33,SW,225,0.0,0.0,97,0.00,,,0.00,Wunderground v.1.15,2013-03-10 13:55:00,
2013-03-10 07:00:00,34.5,33.7,30.33,SW,225,0.0,0.0,97,0.00,,,0.00,Wunderground v.1.15,2013-03-10 14:00:00,
2013-03-10 07:05:00,35.1,34.3,30.33,SW,225,0.0,0.0,97,0.00,,,0.00,Wunderground v.1.15,2013-03-10 14:05:00,
2013-03-10 07:10:00,35.1,34.3,30.33,SW,225,0.0,0.0,97,0.00,,,0.00,Wunderground v.1.15,2013-03-10 14:10:00,
2013-03-10 07:20:00,33.8,33.0,30.33,SW,225,0.0,0.0,97,0.00,,,0.00,Wunderground v.1.15,2013-03-10 14:20:00,
2013-03-10 07:25:00,33.4,32.6,30.33,SW,225,0.0,0.0,97,0.00,,,0.00,Wunderground v.1.15,2013-03-10 14:25:00,
2013-03-10 07:30:00,33.2,32.4,30.33,SW,225,0.0,0.0,97,0.00,,,0.00,Wunderground v.1.15,2013-03-10 14:30:00,
2013-03-10 07:35:00,33.7,32.9,30.33,SW,225,0.0,0.0,97,0.00,,,0.00,Wunderground v.1.15,2013-03-10 14:35:00,
2013-03-10 07:40:00,34.1,33.3,30.33,SW,225,0.0,0.0,97,0.00,,,0.00,Wunderground v.1.15,2013-03-10 14:40:00,
2013-03-10 07:50:00,33.7,33.2,30.33,SW,222,0.0,0.0,98,0.00,,,0.00,Wunderground v.1.15,2013-03-10 14:50:00,
2013-03-10 07:55:00,33.8,33.3,30.33,SW,222,0.0,0.0,98,0.00,,,0.00,Wunderground v.1.15,2013-03-10 14:55:00,
2013-03-10 08:00:00,33.4,32.6,30.33,SW,222,0.0,0.0,97,0.00,,,0.00,Wunderground v.1.15,2013-03-10 15:00:00,
2013-03-10 08:05:00,34.7,33.9,30.33,SW,222,0.0,0.0,97,0.00,,,0.00,Wunderground v.1.15,2013-03-10 15:05:00,
2013-03-10 08:10:00,35.2,34.7,30.33,SW,222,0.0,0.0,98,0.00,,,0.00,Wunderground v.1.15,2013-03-10 15:10:00,
2013-03-10 08:20:00,34.6,33.8,30.33,SW,222,0.0,0.0,97,0.00,,,0.00,Wunderground v.1.15,2013-03-10 15:20:00,
2013-03-10 08:25:00,34.9,34.4,30.34,SW,222,0.0,0.0,98,0.00,,,0.00,Wunderground v.1.15,2013-03-10 15:25:00,
2013-03-10 08:30:00,36.4,35.9,30.34,SW,222,0.0,0.0,98,0.00,,,0.00,Wunderground v.1.15,2013-03-10 15:30:00,
2013-03-10 08:35:00,37.6,37.1,30.34,SW,228,0.0,2.0,98,0.00,,,0.00,Wunderground v.1.15,2013-03-10 15:35:00,
2013-03-10 08:40:00,38.6,38.1,30.35,SW,218,1.0,1.0,98,0.00,,,0.00,Wunderground v.1.15,2013-03-10 15:40:00,
2013-03-10 08:50:00,39.7,39.2,30.35,SW,218,0.0,0.0,98,0.00,,,0.00,Wunderground v.1.15,2013-03-10 15:50:00,
2013-03-10 08:55:00,40.1,39.6,30.35,SW,218,0.0,0.0,98,0.00,,,0.00,Wunderground v.1.15,2013-03-10 15:55:00,
2013-03-10 09:00:00,40.7,40.2,30.35,SW,218,0.0,0.0,98,0.00,,,0.00,Wunderground v.1.15,2013-03-10 16:00:00,
2013-03-10 09:10:00,40.6,40.1,30.35,SW,218,2.0,3.0,98,0.00,,,0.00,Wunderground v.1.15,2013-03-10 16:10:00,
2013-03-10 09:15:00,40.8,40.3,30.35,SW,218,3.0,3.0,98,0.00,,,0.00,Wunderground v.1.15,2013-03-10 16:15:00,
2013-03-10 09:20:00,40.7,40.2,30.35,SW,219,4.0,5.0,98,0.00,,,0.00,Wunderground v.1.15,2013-03-10 16:20:00,
2013-03-10 09:25:00,41.6,41.1,30.35,SW,219,5.0,6.0,98,0.00,,,0.00,Wunderground v.1.15,2013-03-10 16:25:00,
2013-03-10 09:35:00,42.2,41.7,30.35,SW,222,5.0,5.0,98,0.00,,,0.00,Wunderground v.1.15,2013-03-10 16:35:00,
2013-03-10 09:40:00,43.3,42.8,30.35,SW,222,4.0,4.0,98,0.00,,,0.00,Wunderground v.1.15,2013-03-10 16:40:00,
2013-03-10 09:45:00,44.3,43.8,30.35,SW,222,2.0,4.0,98,0.00,,,0.00,Wunderground v.1.15,2013-03-10 16:45:00,
2013-03-10 09:50:00,45.1,44.6,30.35,SW,222,0.0,0.0,98,0.00,,,0.00,Wunderground v.1.15,2013-03-10 16:50:00,
2013-03-10 09:55:00,45.9,45.4,30.35,SW,222,0.0,0.0,98,0.00,,,0.00,Wunderground v.1.15,2013-03-10 16:55:00,
2013-03-10 10:05:00,47.4,46.9,30.34,SW,222,0.0,0.0,98,0.00,,,0.00,Wunderground v.1.15,2013-03-10 17:05:00,
2013-03-10 10:10:00,47.9,47.4,30.35,SW,222,0.0,0.0,98,0.00,,,0.00,Wunderground v.1.15,2013-03-10 17:10:00,
2013-03-10 10:15:00,48.4,47.9,30.34,SW,222,0.0,0.0,98,0.00,,,0.00,Wunderground v.1.15,2013-03-10 17:15:00,
2013-03-10 10:20:00,49.4,48.6,30.35,SW,222,0.0,0.0,97,0.00,,,0.00,Wunderground v.1.15,2013-03-10 17:20:00,
2013-03-10 10:30:00,50.0,48.6,30.34,SW,225,0.0,0.0,95,0.00,,,0.00,Wunderground v.1.15,2013-03-10 17:30:00,
2013-03-10 10:35:00,50.2,48.5,30.35,SW,225,0.0,0.0,94,0.00,,,0.00,Wunderground v.1.15,2013-03-10 17:35:00,
2013-03-10 10:40:00,50.4,48.2,30.35,SW,225,0.0,0.0,92,0.00,,,0.00,Wunderground v.1.15,2013-03-10 17:40:00,
2013-03-10 10:45:00,50.8,48.3,30.35,SW,225,0.0,0.0,91,0.00,,,0.00,Wunderground v.1.15,2013-03-10 17:45:00,
2013-03-10 10:55:00,52.2,49.4,30.35,SSW,213,0.0,0.0,90,0.00,,,0.00,Wunderground v.1.15,2013-03-10 17:55:00,
2013-03-10 11:00:00,52.2,48.8,30.35,SSW,213,0.0,0.0,88,0.00,,,0.00,Wunderground v.1.15,2013-03-10 18:00:00,
2013-03-10 11:05:00,52.7,48.9,30.35,SW,231,0.0,3.0,87,0.00,,,0.00,Wunderground v.1.15,2013-03-10 18:05:00,
2013-03-10 11:10:00,52.8,48.7,30.35,SW,230,1.0,1.0,86,0.00,,,0.00,Wunderground v.1.15,2013-03-10 18:10:00,
2013-03-10 11:20:00,53.2,48.8,30.34,SW,229,0.0,0.0,85,0.00,,,0.00,Wunderground v.1.15,2013-03-10 18:20:00,
2013-03-10 11:25:00,53.4,48.7,30.34,SW,229,1.0,3.0,84,0.00,,,0.00,Wunderground v.1.15,2013-03-10 18:25:00,
2013-03-10 11:30:00,53.7,48.3,30.34,SW,229,0.0,0.0,82,0.00,,,0.00,Wunderground v.1.15,2013-03-10 18:30:00,
2013-03-10 11:35:00,54.4,49.0,30.34,SW,229,0.0,0.0,82,0.00,,,0.00,Wunderground v.1.15,2013-03-10 18:35:00,
2013-03-10 11:40:00,55.1,49.4,30.34,SW,229,0.0,0.0,81,0.00,,,0.00,Wunderground v.1.15,2013-03-10 18:40:00,
2013-03-10 11:50:00,56.0,49.2,30.33,SSW,193,0.0,0.0,78,0.00,,,0.00,Wunderground v.1.15,2013-03-10 18:50:00,
2013-03-10 11:55:00,56.2,49.1,30.33,SSW,210,0.0,0.0,77,0.00,,,0.00,Wunderground v.1.15,2013-03-10 18:55:00,
2013-03-10 12:00:00,56.7,49.9,30.33,SSW,211,1.0,2.0,78,0.00,,,0.00,Wunderground v.1.15,2013-03-10 19:00:00,
2013-03-10 12:05:00,57.2,50.4,30.33,SSW,212,1.0,2.0,78,0.00,,,0.00,Wunderground v.1.15,2013-03-10 19:05:00,
2013-03-10 12:15:00,57.7,50.9,30.33,SSW,213,1.0,3.0,78,0.00,,,0.00,Wunderground v.1.15,2013-03-10 19:15:00,
2013-03-10 12:20:00,58.1,50.9,30.33,WSW,244,1.0,5.0,77,0.00,,,0.00,Wunderground v.1.15,2013-03-10 19:20:00,
2013-03-10 12:25:00,58.9,51.3,30.33,SW,225,2.0,5.0,76,0.00,,,0.00,Wunderground v.1.15,2013-03-10 19:25:00,
2013-03-10 12:30:00,59.0,50.7,30.33,SW,214,2.0,4.0,74,0.00,,,0.00,Wunderground v.1.15,2013-03-10 19:30:00,
2013-03-10 12:40:00,59.2,50.9,30.32,South,190,1.0,2.0,74,0.00,,,0.00,Wunderground v.1.15,2013-03-10 19:40:00,
2013-03-10 12:45:00,59.6,51.7,30.32,South,183,1.0,2.0,75,0.00,,,0.00,Wunderground v.1.15,2013-03-10 19:45:00,
2013-03-10 12:50:00,59.6,51.7,30.33,SSW,213,2.0,3.0,75,0.00,,,0.00,Wunderground v.1.15,2013-03-10 19:50:00,
2013-03-10 12:55:00,60.0,52.8,30.32,SSW,194,3.0,6.0,77,0.00,,,0.00,Wunderground v.1.15,2013-03-10 19:55:00,
2013-03-10 13:00:00,60.0,51.7,30.32,South,184,3.0,3.0,74,0.00,,,0.00,Wunderground v.1.15,2013-03-10 20:00:00,
2013-03-10 13:15:00,60.1,51.8,30.32,SW,220,4.0,5.0,74,0.00,,,0.00,Wunderground v.1.15,2013-03-10 20:15:00,
2013-03-10 13:20:00,59.9,50.5,30.31,SSW,193,5.0,5.0,71,0.00,,,0.00,Wunderground v.1.15,2013-03-10 20:20:00,
2013-03-10 13:30:00,60.2,50.4,30.31,SSW,202,4.0,8.0,70,0.00,,,0.00,Wunderground v.1.15,2013-03-10 20:30:00,
2013-03-10 13:35:00,60.9,50.3,30.30,SSW,197,4.0,8.0,68,0.00,,,0.00,Wunderground v.1.15,2013-03-10 20:35:00,
2013-03-10 13:40:00,61.2,49.7,30.30,SSE,167,4.0,4.0,66,0.00,,,0.00,Wunderground v.1.15,2013-03-10 20:40:00,
2013-03-10 13:50:00,61.4,48.7,30.30,South,183,4.0,5.0,63,0.00,,,0.00,Wunderground v.1.15,2013-03-10 20:50:00,
2013-03-10 13:55:00,61.4,44.6,30.30,SSE,162,5.0,6.0,54,0.00,,,0.00,Wunderground v.1.15,2013-03-10 20:55:00,
2013-03-10 14:00:00,61.6,43.3,30.30,SSE,155,5.0,8.0,51,0.00,,,0.00,Wunderground v.1.15,2013-03-10 21:00:00,
2013-03-10 14:05:00,61.9,45.5,30.30,SSE,163,4.0,8.0,55,0.00,,,0.00,Wunderground v.1.15,2013-03-10 21:05:00,
2013-03-10 14:10:00,62.4,46.0,30.30,SSW,212,4.0,6.0,55,0.00,,,0.00,Wunderground v.1.15,2013-03-10 21:10:00,
2013-03-10 14:20:00,62.5,44.1,30.30,SSW,195,4.0,4.0,51,0.00,,,0.00,Wunderground v.1.15,2013-03-10 21:20:00,
2013-03-10 14:25:00,62.5,43.1,30.29,South,180,4.0,4.0,49,0.00,,,0.00,Wunderground v.1.15,2013-03-10 21:25:00,
2013-03-10 14:30:00,62.8,44.4,30.29,SSW,195,4.0,7.0,51,0.00,,,0.00,Wunderground v.1.15,2013-03-10 21:30:00,
2013-03-10 14:35:00,62.9,41.8,30.28,SSW,197,4.0,7.0,46,0.00,,,0.00,Wunderground v.1.15,2013-03-10 21:35:00,
2013-03-10 14:40:00,63.0,44.1,30.28,South,180,5.0,5.0,50,0.00,,,0.00,Wunderground v.1.15,2013-03-10 21:40:00,
2013-03-10 14:55:00,63.2,43.2,30.29,SSW,192,7.0,12.0,48,0.00,,,0.00,Wunderground v.1.15,2013-03-10 21:55:00,
2013-03-10 15:00:00,63.1,43.6,30.28,South,182,8.0,8.0,49,0.00,,,0.00,Wunderground v.1.15,2013-03-10 22:00:00,
2013-03-10 15:10:00,63.7,46.7,30.27,SSW,196,4.0,4.0,54,0.00,,,0.00,Wunderground v.1.15,2013-03-10 22:10:00,
2013-03-10 15:15:00,63.7,41.9,30.28,SSW,199,5.0,7.0,45,0.00,,,0.00,Wunderground v.1.15,2013-03-10 22:15:00,
2013-03-10 15:20:00,63.7,43.1,30.28,South,173,6.0,6.0,47,0.00,,,0.00,Wunderground v.1.15,2013-03-10 22:20:00,
2013-03-10 15:25:00,63.6,49.0,30.28,SSW,211,7.0,8.0,59,0.00,,,0.00,Wunderground v.1.15,2013-03-10 22:25:00,
2013-03-10 15:35:00,62.1,50.6,30.28,SSW,192,6.0,7.0,66,0.00,,,0.00,Wunderground v.1.15,2013-03-10 22:35:00,
2013-03-10 15:40:00,61.7,50.6,30.28,South,178,5.0,5.0,67,0.00,,,0.00,Wunderground v.1.15,2013-03-10 22:40:00,
2013-03-10 15:45:00,61.3,49.8,30.28,SSE,157,4.0,6.0,66,0.00,,,0.00,Wunderground v.1.15,2013-03-10 22:45:00,
2013-03-10 15:55:00,60.0,49.4,30.28,South,175,5.0,6.0,68,0.00,,,0.00,Wunderground v.1.15,2013-03-10 22:55:00,
2013-03-10 16:00:00,60.3,48.9,30.28,South,178,5.0,5.0,66,0.00,,,0.00,Wunderground v.1.15,2013-03-10 23:00:00,
2013-03-10 16:05:00,60.5,50.3,30.27,SSE,152,4.0,5.0,69,0.00,,,0.00,Wunderground v.1.15,2013-03-10 23:05:00,
2013-03-10 16:10:00,60.2,49.2,30.27,SSE,155,4.0,4.0,67,0.00,,,0.00,Wunderground v.1.15,2013-03-10 23:10:00,
2013-03-10 16:15:00,60.3,50.1,30.27,SE,143,4.0,5.0,69,0.00,,,0.00,Wunderground v.1.15,2013-03-10 23:15:00,
2013-03-10 16:25:00,60.0,50.2,30.28,SSE,159,5.0,7.0,70,0.00,,,0.00,Wunderground v.1.15,2013-03-10 23:25:00,
2013-03-10 16:30:00,60.0,50.2,30.27,SE,144,5.0,6.0,70,0.00,,,0.00,Wunderground v.1.15,2013-03-10 23:30:00,
2013-03-10 16:35:00,60.3,49.7,30.27,SSE,163,4.0,6.0,68,0.00,,,0.00,Wunderground v.1.15,2013-03-10 23:35:00,
2013-03-10 16:40:00,60.5,48.3,30.26,South,171,3.0,3.0,64,0.00,,,0.00,Wunderground v.1.15,2013-03-10 23:40:00,
2013-03-10 16:50:00,60.5,48.7,30.26,South,169,2.0,3.0,65,0.00,,,0.00,Wunderground v.1.15,2013-03-10 23:50:00,
2013-03-10 16:55:00,60.3,48.1,30.27,SSE,159,3.0,3.0,64,0.00,,,0.00,Wunderground v.1.15,2013-03-10 23:55:00,
2013-03-10 17:00:00,59.9,48.9,30.26,SE,145,4.0,5.0,67,0.00,,,0.00,Wunderground v.1.15,2013-03-11 00:00:00,
2013-03-10 17:05:00,58.3,48.2,30.27,SE,142,5.0,11.0,69,0.00,,,0.00,Wunderground v.1.15,2013-03-11 00:05:00,
2013-03-10 17:10:00,56.0,47.5,30.27,SSE,158,7.0,7.0,73,0.00,,,0.00,Wunderground v.1.15,2013-03-11 00:10:00,
2013-03-10 17:20:00,55.3,48.6,30.26,SSW,200,6.0,6.0,78,0.00,,,0.00,Wunderground v.1.15,2013-03-11 00:20:00,
2013-03-10 17:25:00,54.9,48.8,30.27,South,176,7.0,7.0,80,0.00,,,0.00,Wunderground v.1.15,2013-03-11 00:25:00,
2013-03-10 17:30:00,54.8,48.4,30.27,SSE,162,7.0,7.0,79,0.00,,,0.00,Wunderground v.1.15,2013-03-11 00:30:00,
2013-03-10 17:35:00,54.7,48.3,30.26,SSE,160,5.0,7.0,79,0.00,,,0.00,Wunderground v.1.15,2013-03-11 00:35:00,
2013-03-10 17:40:00,54.5,48.5,30.26,South,188,5.0,8.0,80,0.00,,,0.00,Wunderground v.1.15,2013-03-11 00:40:00,
2013-03-10 17:50:00,53.7,48.0,30.26,SSE,157,7.0,7.0,81,0.00,,,0.00,Wunderground v.1.15,2013-03-11 00:50:00,
2013-03-10 17:55:00,53.7,48.3,30.26,SSW,207,5.0,8.0,82,0.00,,,0.00,Wunderground v.1.15,2013-03-11 00:55:00,
2013-03-10 18:00:00,53.4,48.4,30.26,South,178,4.0,4.0,83,0.00,,,0.00,Wunderground v.1.15,2013-03-11 01:00:00,
2013-03-10 18:05:00,53.2,48.5,30.26,South,175,4.0,4.0,84,0.00,,,0.00,Wunderground v.1.15,2013-03-11 01:05:00,
2013-03-10 18:15:00,52.7,48.3,30.26,SSE,159,3.0,4.0,85,0.00,,,0.00,Wunderground v.1.15,2013-03-11 01:15:00,
2013-03-10 18:20:00,52.5,48.1,30.27,South,175,2.0,2.0,85,0.00,,,0.00,Wunderground v.1.15,2013-03-11 01:20:00,
2013-03-10 18:25:00,52.0,47.6,30.27,South,173,2.0,2.0,85,0.00,,,0.00,Wunderground v.1.15,2013-03-11 01:25:00,
2013-03-10 18:30:00,51.7,47.6,30.27,South,188,2.0,4.0,86,0.00,,,0.00,Wunderground v.1.15,2013-03-11 01:30:00,
2013-03-10 18:40:00,51.4,47.7,30.27,South,186,2.0,2.0,87,0.00,,,0.00,Wunderground v.1.15,2013-03-11 01:40:00,
2013-03-10 18:45:00,51.3,47.6,30.27,South,186,1.0,2.0,87,0.00,,,0.00,Wunderground v.1.15,2013-03-11 01:45:00,
2013-03-10 18:50:00,51.0,47.3,30.27,South,186,0.0,0.0,87,0.00,,,0.00,Wunderground v.1.15,2013-03-11 01:50:00,
2013-03-10 18:55:00,50.6,47.2,30.27,South,186,0.0,1.0,88,0.00,,,0.00,Wunderground v.1.15,2013-03-11 01:55:00,
2013-03-10 19:00:00,50.1,46.7,30.27,South,186,0.0,2.0,88,0.00,,,0.00,Wunderground v.1.15,2013-03-11 02:00:00,
2013-03-10 19:10:00,49.5,46.7,30.27,South,186,1.0,1.0,90,0.00,,,0.00,Wunderground v.1.15,2013-03-11 02:10:00,
2013-03-10 19:15:00,49.3,46.5,30.27,South,186,0.0,1.0,90,0.00,,,0.00,Wunderground v.1.15,2013-03-11 02:15:00,
2013-03-10 19:20:00,49.2,46.4,30.27,South,186,0.0,0.0,90,0.00,,,0.00,Wunderground v.1.15,2013-03-11 02:20:00,
2013-03-10 19:25:00,49.1,46.3,30.27,South,186,0.0,0.0,90,0.00,,,0.00,Wunderground v.1.15,2013-03-11 02:25:00,
2013-03-10 19:30:00,49.0,46.5,30.27,South,186,0.0,0.0,91,0.00,,,0.00,Wunderground v.1.15,2013-03-11 02:30:00,
2013-03-10 19:40:00,48.7,46.2,30.27,South,186,0.0,1.0,91,0.00,,,0.00,Wunderground v.1.15,2013-03-11 02:40:00,
2013-03-10 19:45:00,48.6,46.1,30.27,South,186,0.0,1.0,91,0.00,,,0.00,Wunderground v.1.15,2013-03-11 02:45:00,
2013-03-10 19:50:00,48.4,46.2,30.26,South,186,0.0,1.0,92,0.00,,,0.00,Wunderground v.1.15,2013-03-11 02:50:00,
2013-03-10 19:55:00,48.2,46.0,30.27,SSE,160,0.0,1.0,92,0.00,,,0.00,Wunderground v.1.15,2013-03-11 02:55:00,
2013-03-10 20:05:00,48.1,46.2,30.27,SSE,149,0.0,0.0,93,0.00,,,0.00,Wunderground v.1.15,2013-03-11 03:05:00,
2013-03-10 20:10:00,48.0,46.1,30.27,SSE,147,0.0,0.0,93,0.00,,,0.00,Wunderground v.1.15,2013-03-11 03:10:00,
2013-03-10 20:15:00,47.8,45.9,30.26,SSE,147,0.0,0.0,93,0.00,,,0.00,Wunderground v.1.15,2013-03-11 03:15:00,
2013-03-10 20:20:00,47.4,45.5,30.26,SSE,147,0.0,0.0,93,0.00,,,0.00,Wunderground v.1.15,2013-03-11 03:20:00,
2013-03-10 20:25:00,47.5,45.6,30.27,SSE,147,0.0,0.0,93,0.00,,,0.00,Wunderground v.1.15,2013-03-11 03:25:00,
2013-03-10 20:35:00,47.3,45.7,30.27,SSE,148,1.0,4.0,94,0.00,,,0.00,Wunderground v.1.15,2013-03-11 03:35:00,
2013-03-10 20:40:00,46.9,45.0,30.27,SSE,152,2.0,2.0,93,0.00,,,0.00,Wunderground v.1.15,2013-03-11 03:40:00,
2013-03-10 20:45:00,46.3,44.7,30.27,SSE,152,2.0,3.0,94,0.00,,,0.00,Wunderground v.1.15,2013-03-11 03:45:00,
2013-03-10 20:50:00,45.7,44.1,30.27,SSE,152,2.0,2.0,94,0.00,,,0.00,Wunderground v.1.15,2013-03-11 03:50:00,
2013-03-10 21:00:00,45.9,44.5,30.27,SSE,152,1.0,1.0,95,0.00,,,0.00,Wunderground v.1.15,2013-03-11 04:00:00,
2013-03-10 21:05:00,45.7,44.4,30.28,SSE,152,0.0,1.0,95,0.00,,,0.00,Wunderground v.1.15,2013-03-11 04:05:00,
2013-03-10 21:10:00,45.8,44.4,30.27,SSE,152,0.0,0.0,95,0.00,,,0.00,Wunderground v.1.15,2013-03-11 04:10:00,
2013-03-10 21:15:00,45.8,44.4,30.28,SSE,152,0.0,0.0,95,0.00,,,0.00,Wunderground v.1.15,2013-03-11 04:15:00,
2013-03-10 21:20:00,46.2,45.1,30.27,SSE,152,0.0,0.0,96,0.00,,,0.00,Wunderground v.1.15,2013-03-11 04:20:00,
2013-03-10 21:25:00,46.2,44.8,30.28,SSE,152,0.0,0.0,95,0.00,,,0.00,Wunderground v.1.15,2013-03-11 04:25:00,
2013-03-10 21:30:00,46.3,44.9,30.28,SSE,152,0.0,0.0,95,0.00,,,0.00,Wunderground v.1.15,2013-03-11 04:30:00,
2013-03-10 21:35:00,46.4,45.3,30.28,SSE,152,0.0,1.0,96,0.00,,,0.00,Wunderground v.1.15,2013-03-11 04:35:00,
2013-03-10 21:40:00,46.7,45.6,30.28,SSE,152,0.0,0.0,96,0.00,,,0.00,Wunderground v.1.15,2013-03-11 04:40:00,
2013-03-10 21:50:00,46.9,45.8,30.28,SSE,152,0.0,0.0,96,0.00,,,0.00,Wunderground v.1.15,2013-03-11 04:50:00,
2013-03-10 21:55:00,47.0,45.9,30.28,SSE,152,0.0,0.0,96,0.00,,,0.00,Wunderground v.1.15,2013-03-11 04:55:00,
2013-03-10 22:00:00,47.2,46.1,30.28,SSE,152,0.0,0.0,96,0.00,,,0.00,Wunderground v.1.15,2013-03-11 05:00:00,
2013-03-10 22:05:00,47.3,46.2,30.28,SSE,152,0.0,0.0,96,0.00,,,0.00,Wunderground v.1.15,2013-03-11 05:05:00,
2013-03-10 22:10:00,47.3,46.2,30.28,SSE,152,0.0,0.0,96,0.00,,,0.00,Wunderground v.1.15,2013-03-11 05:10:00,
2013-03-10 22:20:00,47.4,46.3,30.28,SSE,152,0.0,0.0,96,0.00,,,0.00,Wunderground v.1.15,2013-03-11 05:20:00,
2013-03-10 22:25:00,47.4,46.3,30.28,SSE,152,0.0,0.0,96,0.00,,,0.00,Wunderground v.1.15,2013-03-11 05:25:00,
2013-03-10 22:30:00,47.5,46.4,30.28,SSE,152,0.0,0.0,96,0.00,,,0.00,Wunderground v.1.15,2013-03-11 05:30:00,
2013-03-10 22:35:00,47.5,46.4,30.28,SSE,152,0.0,0.0,96,0.00,,,0.00,Wunderground v.1.15,2013-03-11 05:35:00,
2013-03-10 22:45:00,47.4,46.3,30.28,SSE,152,0.0,3.0,96,0.00,,,0.00,Wunderground v.1.15,2013-03-11 05:45:00,
2013-03-10 22:50:00,47.3,46.2,30.28,SSE,152,0.0,0.0,96,0.00,,,0.00,Wunderground v.1.15,2013-03-11 05:50:00,
2013-03-10 22:55:00,47.4,46.3,30.28,SSE,152,0.0,0.0,96,0.00,,,0.00,Wunderground v.1.15,2013-03-11 05:55:00,
2013-03-10 23:05:00,47.3,46.2,30.28,SSE,152,0.0,0.0,96,0.00,,,0.00,Wunderground v.1.15,2013-03-11 06:05:00,
2013-03-10 23:10:00,47.3,46.2,30.27,SSE,152,0.0,0.0,96,0.00,,,0.00,Wunderground v.1.15,2013-03-11 06:10:00,
2013-03-10 23:15:00,47.3,46.2,30.28,SSE,152,0.0,0.0,96,0.00,,,0.00,Wunderground v.1.15,2013-03-11 06:15:00,
2013-03-10 23:20:00,47.2,46.1,30.28,SSE,152,1.0,1.0,96,0.00,,,0.00,Wunderground v.1.15,2013-03-11 06:20:00,
2013-03-10 23:25:00,47.1,46.0,30.28,SSE,152,1.0,1.0,96,0.00,,,0.00,Wunderground v.1.15,2013-03-11 06:25:00,
2013-03-10 23:35:00,47.0,46.2,30.28,SSE,152,0.0,1.0,97,0.00,,,0.00,Wunderground v.1.15,2013-03-11 06:35:00,
2013-03-10 23:40:00,47.0,46.2,30.27,SSE,152,0.0,0.0,97,0.00,,,0.00,Wunderground v.1.15,2013-03-11 06:40:00,
2013-03-10 23:45:00,47.0,46.2,30.27,SSE,152,0.0,0.0,97,0.00,,,0.00,Wunderground v.1.15,2013-03-11 06:45:00,
2013-03-10 23:50:00,47.0,46.2,30.27,SSE,152,0.0,0.0,97,0.00,,,0.00,Wunderground v.1.15,2013-03-11 06:50:00,
2013-03-10 23:55:00,46.9,46.1,30.27,SSE,152,0.0,0.0,97,0.00,,,0.00,Wunderground v.1.15,2013-03-11 06:55:00,